[[{"header":{"parameterUnit":"m.s-1","parameterCategory":1,"la1":30.2991,"la2":30.254,"lo1":-89.0895,"lo2":-89.0444,"dy":0.0017,"dx":0.0017,"nx":28,"ny":28,"refTime":"2023-07-23T03:00:00:Z","depth":0,"parameterNumber":2,"parameterNumberName":"U-component_of_WINDS"},"data":[0,0,0,0,0,0,0,0,0,0,0,0,0,0,0,0,0,0,0,0,0,0,0,0,0,0,0,0,0,0,0,0,0,0,0,0,0,0,0,0,0,0,0,0,0,0,0,0,0,0,0,0,0,0,0,0,0,0,1.5329,1.5332,0,1.5624,1.5628,1.5631,1.5677,1.5675,1.5672,1.5669,1.5986,1.5996,1.6007,0,0,0,0,0,0,0,0,0,0,0,0,0,1.4814,1.4823,1.5329,1.5332,1.5336,1.5624,1.5628,1.5632,1.5678,1.5674,1.5671,1.5668,1.5982,1.5995,1.6008,0,0,0,0,0,0,0,0,0,0,0,0,0,1.5067,1.4826,1.5328,1.5393,1.5402,1.5623,1.5628,1.5633,1.5678,1.5674,1.567,1.5667,1.5978,1.5994,1.601,1.6191,0,0,1.606,1.6067,0,0,0,0,0,0,0,0,1.5052,1.5086,1.538,1.5389,1.5399,1.5609,1.5562,1.582,1.5679,1.5574,1.5669,1.5665,1.5865,1.589,1.5955,1.6205,1.6219,1.6061,1.6071,1.6078,1.6083,0,0,0,0,0,0,0,1.5035,1.5073,1.5446,1.5384,1.5396,1.5411,1.5442,1.5612,1.5739,1.5583,1.5587,1.562,1.5869,1.5939,1.5962,1.6224,1.6061,1.6075,1.6085,1.6092,1.6637,1.6642,0,0,0,0,0,0,1.5004,1.5058,1.5437,1.5455,1.5212,1.5423,1.5459,1.5546,1.5737,1.5762,1.5623,1.5621,1.5913,1.5943,1.5974,1.62,1.6078,1.6093,1.6103,1.6633,1.6638,1.6643,0,0,0,0,0,0,1.4993,1.5037,1.5425,1.5258,1.5308,1.5436,1.5535,1.5554,1.5624,1.5767,1.5791,1.5671,1.5911,1.5951,1.6135,1.6211,1.6101,1.6116,1.6627,1.6634,1.6641,1.6651,0,0,0,0,0,0,1.4978,1.5033,1.5101,1.5259,1.5317,1.5579,1.5539,1.5563,1.565,1.565,1.5818,1.5842,1.5911,1.6111,1.6152,1.6232,1.6128,1.6621,1.663,1.6639,1.6645,1.6658,1.6669,0,0,0,0,0,1.4959,1.5095,1.5104,1.515,1.5404,1.5583,1.5617,1.5689,1.5656,1.5728,1.5819,1.5837,1.6194,1.6129,1.6176,1.6262,1.6617,1.6628,1.6638,1.664,1.6655,1.6668,0,0,0,0,0,0,1.495,1.5118,1.5129,1.532,1.5436,1.559,1.5683,1.5704,1.5836,1.5831,1.5919,1.5956,1.6137,1.6217,1.6142,1.6446,1.6403,1.6424,1.6389,1.6405,1.6416,1.6397,1.6142,0,0,0,0,0,1.4968,1.5096,1.5237,1.5392,1.5448,1.5555,1.5636,1.568,1.5807,1.5858,1.5963,1.6088,1.6228,1.632,1.6457,1.6653,1.6693,1.6735,1.6747,1.6756,1.6775,1.6886,1.6908,1.6678,1.6678,1.6678,0,0,1.5012,1.5119,1.5196,1.5392,1.5488,1.5621,1.5597,1.574,1.5841,1.5881,1.6062,1.6142,1.6287,1.6478,1.6568,1.6551,1.6846,1.677,1.6776,1.6791,1.6899,1.6921,1.694,1.6685,1.6684,1.6683,0,0,1.516,1.5252,1.5391,1.5485,1.5627,1.5695,1.5728,1.5878,1.5932,1.6112,1.6145,1.6267,1.6507,1.6609,1.6692,1.6871,1.6894,1.6913,1.6979,1.7086,1.7104,1.712,1.7188,1.7211,1.6929,1.6929,1.693,0,1.5199,1.5397,1.5461,1.5602,1.5688,1.5722,1.5866,1.5955,1.6137,1.6198,1.6173,1.6473,1.6573,1.6789,1.6832,1.6897,1.694,1.6898,1.7095,1.7112,1.7129,1.7194,1.7219,1.6931,1.6931,1.6931,1.6931,0,1.5438,1.5574,1.567,1.5838,1.5935,1.6076,1.6165,1.6255,1.6289,1.636,1.6544,1.6663,1.6825,1.6878,1.6916,1.71,1.7085,1.7076,1.7036,1.7151,1.7215,1.724,1.6934,1.6933,1.6933,1.6932,0,0,1.5599,1.5793,1.5828,1.5904,1.606,1.6169,1.6311,1.6463,1.6541,1.6662,1.6787,1.6985,1.6977,1.7071,1.7119,1.7212,1.7349,1.7192,1.7197,1.7221,1.7562,1.7572,1.76,1.736,1.7365,1.7369,1.7552,0,1.5769,1.6019,1.6078,1.6295,1.6424,1.6454,1.6578,1.6689,1.6757,1.6879,1.6956,1.7097,1.7073,1.713,1.7223,1.7312,1.7419,1.7299,1.7483,1.7489,1.7452,1.7633,1.7645,1.7812,1.7576,1.7581,1.7584,0,1.6004,1.6124,1.6352,1.6487,1.6544,1.6654,1.6797,1.6911,1.7036,1.708,1.7181,1.7218,1.737,1.7314,1.7527,1.7444,1.7521,1.7575,1.7584,1.761,1.7548,1.7669,1.7866,1.7893,1.7622,1.7619,1.7616,0,1.6103,1.6322,1.6487,1.655,1.6711,1.6788,1.686,1.698,1.7067,1.7193,1.7251,1.7393,1.7474,1.7584,1.766,1.7612,1.7867,1.7818,1.7912,1.7911,1.7972,1.7969,1.819,1.801,1.801,1.8009,1.8009,0,1.6292,1.6432,1.6533,1.6636,1.6792,1.6858,1.7013,1.7085,1.7191,1.731,1.7344,1.7456,1.7545,1.767,1.7729,1.7898,1.7933,1.7975,1.7991,1.7977,1.7972,1.8035,1.8028,1.8016,1.8014,1.8013,1.8012,0,1.6434,1.6507,1.6689,1.6823,1.6859,1.697,1.7087,1.7189,1.7253,1.7404,1.7443,1.7549,1.7697,1.7779,1.7967,1.8007,1.8196,1.8203,1.8153,1.8162,1.8253,1.8245,1.8529,1.8571,1.8356,1.8358,1.8359,0,1.6554,1.6661,1.6803,1.6882,1.6953,1.7081,1.7168,1.7234,1.7324,1.7471,1.7556,1.7703,1.7827,1.8062,1.8158,1.8301,1.8316,1.8404,1.8339,1.832,1.8324,1.8319,1.8332,1.8419,1.8421,1.8423,1.8424,0,1.6759,1.6788,1.6909,1.7041,1.7142,1.7251,1.736,1.7424,1.7509,1.7608,1.7756,1.785,1.8037,1.8186,1.8335,1.8413,1.8436,1.8442,1.8473,1.8463,1.8432,1.8455,1.8191,1.8438,1.8437,1.8436,1.8435,1.8434,1.6899,1.6995,1.7108,1.7242,1.7328,1.7427,1.7528,1.7602,1.7726,1.7881,1.7911,1.8069,1.8189,1.8391,1.8472,1.8598,1.8583,1.8626,1.8638,1.8649,1.8655,1.8403,1.8625,1.8625,1.8624,1.8624,1.8624,0,1.7111,1.7183,1.7303,1.7451,1.7555,1.7555,1.7674,1.7764,1.79,1.8007,1.8124,1.8295,1.8437,1.854,1.8686,1.8767,1.8781,1.8804,1.8803,1.8821,1.8658,1.862,1.879,1.879,1.879,1.879,1.879,1.879,1.7234,1.7397,1.7438,1.7644,1.7716,1.7866,1.7934,1.8026,1.8112,1.8298,1.8414,1.8477,1.8584,1.8736,1.8868,1.8894,1.895,1.8972,1.9002,1.885,1.8832,1.8816,1.878,1.8982,1.8982,1.9155,1.9156,1.9158]},{"header":{"parameterUnit":"m.s-1","parameterCategory":1,"la1":30.2991,"la2":30.254,"lo1":-89.0895,"lo2":-89.0444,"dy":0.0017,"dx":0.0017,"nx":28,"ny":28,"refTime":"2023-07-23T03:00:00:Z","depth":0,"parameterNumber":3,"parameterNumberName":"V-component_of_WINDS"},"data":[0,0,0,0,0,0,0,0,0,0,0,0,0,0,0,0,0,0,0,0,0,0,0,0,0,0,0,0,0,0,0,0,0,0,0,0,0,0,0,0,0,0,0,0,0,0,0,0,0,0,0,0,0,0,0,0,0,0,-0.3814,-0.3814,0,-0.3886,-0.3887,-0.3888,-0.3927,-0.3928,-0.3928,-0.3928,-0.3995,-0.3997,-0.3998,0,0,0,0,0,0,0,0,0,0,0,0,0,-0.3704,-0.3705,-0.3814,-0.3815,-0.3815,-0.3886,-0.3887,-0.3888,-0.3927,-0.3928,-0.3928,-0.3928,-0.3995,-0.3997,-0.3999,0,0,0,0,0,0,0,0,0,0,0,0,0,-0.3761,-0.3706,-0.3813,-0.3844,-0.3847,-0.3886,-0.3887,-0.3888,-0.3927,-0.3928,-0.3928,-0.3928,-0.3994,-0.3996,-0.3999,-0.4011,0,0,-0.4007,-0.4008,0,0,0,0,0,0,0,0,-0.3758,-0.3765,-0.3838,-0.3842,-0.3846,-0.3898,-0.3873,-0.3929,-0.3927,-0.3897,-0.3928,-0.3928,-0.3962,-0.3967,-0.398,-0.4014,-0.4017,-0.4007,-0.4008,-0.4009,-0.401,0,0,0,0,0,0,0,-0.3754,-0.3762,-0.3842,-0.3839,-0.3844,-0.3852,-0.386,-0.3884,-0.3927,-0.3899,-0.3902,-0.3911,-0.3964,-0.3978,-0.3982,-0.4018,-0.4007,-0.4009,-0.401,-0.4011,-0.4066,-0.4066,0,0,0,0,0,0,-0.3746,-0.3759,-0.384,-0.3844,-0.3802,-0.3854,-0.3863,-0.3881,-0.3927,-0.3935,-0.3911,-0.3912,-0.3973,-0.3979,-0.3985,-0.4002,-0.4009,-0.4012,-0.4013,-0.4066,-0.4066,-0.4066,0,0,0,0,0,0,-0.3743,-0.3753,-0.3837,-0.3802,-0.3814,-0.3856,-0.3875,-0.3882,-0.3896,-0.3936,-0.3943,-0.3917,-0.3974,-0.3981,-0.4005,-0.4005,-0.4013,-0.4015,-0.4066,-0.4066,-0.4066,-0.4037,0,0,0,0,0,0,-0.374,-0.3752,-0.3758,-0.3802,-0.3816,-0.3857,-0.3875,-0.3884,-0.3901,-0.3904,-0.3944,-0.395,-0.3974,-0.4001,-0.4007,-0.4009,-0.4017,-0.4066,-0.4066,-0.4066,-0.4038,-0.4036,-0.4034,0,0,0,0,0,-0.3736,-0.3745,-0.3758,-0.3767,-0.3824,-0.3857,-0.3864,-0.3894,-0.3901,-0.3907,-0.3933,-0.3949,-0.4004,-0.4003,-0.401,-0.4013,-0.4066,-0.4066,-0.4066,-0.4039,-0.4037,-0.4034,0,0,0,0,0,0,-0.3696,-0.3751,-0.3766,-0.379,-0.3819,-0.3864,-0.3872,-0.389,-0.3916,-0.3917,-0.3951,-0.3959,-0.398,-0.3999,-0.3996,-0.4027,-0.4037,-0.4038,-0.4014,-0.4012,-0.401,-0.4005,-0.4019,0,0,0,0,0,-0.3691,-0.3715,-0.3761,-0.3778,-0.3792,-0.3829,-0.3845,-0.3866,-0.3896,-0.3907,-0.3935,-0.3961,-0.3985,-0.4,-0.4023,-0.4042,-0.405,-0.4047,-0.4045,-0.4043,-0.4044,-0.4055,-0.4054,-0.4065,-0.4065,-0.4065,0,0,-0.3678,-0.3712,-0.3724,-0.3771,-0.3795,-0.3818,-0.3839,-0.3862,-0.3878,-0.391,-0.3935,-0.3956,-0.3988,-0.4009,-0.402,-0.4025,-0.4043,-0.4043,-0.4041,-0.4043,-0.4055,-0.4054,-0.4053,-0.4065,-0.4065,-0.4065,0,0,-0.3668,-0.3696,-0.3714,-0.3739,-0.3778,-0.3803,-0.3807,-0.385,-0.3866,-0.3892,-0.3917,-0.3936,-0.3976,-0.3998,-0.4014,-0.4015,-0.4031,-0.4022,-0.4011,-0.4022,-0.4021,-0.402,-0.402,-0.402,-0.4022,-0.4022,-0.4022,0,-0.3647,-0.3685,-0.372,-0.3742,-0.3762,-0.3794,-0.3812,-0.3834,-0.3877,-0.3889,-0.3895,-0.3947,-0.3971,-0.3998,-0.3999,-0.4011,-0.4016,-0.4017,-0.4019,-0.4018,-0.4018,-0.4019,-0.4019,-0.4021,-0.4021,-0.4021,-0.4021,0,-0.3658,-0.3683,-0.3692,-0.3737,-0.3757,-0.3777,-0.3813,-0.3829,-0.3849,-0.3873,-0.3899,-0.3929,-0.396,-0.3969,-0.3986,-0.3998,-0.4001,-0.4013,-0.4023,-0.4015,-0.4016,-0.4017,-0.4019,-0.4019,-0.402,-0.402,0,0,-0.3622,-0.3688,-0.369,-0.3712,-0.3758,-0.3777,-0.3798,-0.3831,-0.3844,-0.3873,-0.3891,-0.3925,-0.3937,-0.3956,-0.3976,-0.3986,-0.3985,-0.3997,-0.3998,-0.3993,-0.4,-0.3991,-0.399,-0.3996,-0.3996,-0.3997,-0.3997,0,-0.3618,-0.366,-0.3693,-0.3721,-0.3745,-0.3778,-0.3796,-0.3825,-0.3849,-0.3871,-0.3896,-0.392,-0.3934,-0.3946,-0.3957,-0.3983,-0.3986,-0.3983,-0.4011,-0.4012,-0.4002,-0.3991,-0.3981,-0.398,-0.3998,-0.3998,-0.3998,0,-0.3618,-0.3649,-0.3681,-0.3727,-0.3738,-0.3754,-0.3788,-0.3809,-0.3843,-0.3859,-0.3882,-0.3904,-0.3926,-0.3935,-0.3966,-0.3963,-0.3977,-0.3991,-0.3992,-0.3995,-0.4004,-0.3993,-0.398,-0.398,-0.3999,-0.3999,-0.3999,0,-0.3588,-0.3638,-0.3664,-0.3681,-0.3735,-0.3745,-0.3768,-0.3802,-0.382,-0.3849,-0.3862,-0.3891,-0.3907,-0.393,-0.3959,-0.3963,-0.3987,-0.3998,-0.4,-0.3999,-0.4002,-0.4001,-0.3991,-0.4012,-0.4012,-0.4012,-0.4012,0,-0.3579,-0.3597,-0.3652,-0.3668,-0.3689,-0.3727,-0.3746,-0.3771,-0.3801,-0.3821,-0.3851,-0.3868,-0.3907,-0.3929,-0.3952,-0.3974,-0.398,-0.3993,-0.3999,-0.3991,-0.3989,-0.3999,-0.4,-0.4012,-0.4012,-0.4012,-0.4012,0,-0.3549,-0.3587,-0.3617,-0.3667,-0.368,-0.3693,-0.3735,-0.375,-0.3777,-0.3802,-0.381,-0.385,-0.3878,-0.3911,-0.3947,-0.3963,-0.3983,-0.3992,-0.3972,-0.3975,-0.3975,-0.3975,-0.397,-0.3972,-0.3992,-0.3992,-0.3992,0,-0.354,-0.3556,-0.3608,-0.3626,-0.3648,-0.3675,-0.3695,-0.3733,-0.3752,-0.3793,-0.3804,-0.3834,-0.3861,-0.3903,-0.3934,-0.3963,-0.3973,-0.3969,-0.3977,-0.3968,-0.3972,-0.3971,-0.3972,-0.3966,-0.3966,-0.3966,-0.3965,0,-0.3521,-0.354,-0.3569,-0.3605,-0.3629,-0.3659,-0.3689,-0.3701,-0.3744,-0.3764,-0.3795,-0.3816,-0.3856,-0.3885,-0.3919,-0.394,-0.3959,-0.3963,-0.3965,-0.3956,-0.3944,-0.395,-0.3966,-0.3963,-0.3963,-0.3963,-0.3963,-0.3963,-0.3501,-0.3516,-0.3557,-0.3589,-0.3617,-0.3645,-0.3663,-0.3694,-0.3721,-0.3758,-0.3779,-0.3809,-0.3843,-0.3891,-0.3911,-0.3934,-0.394,-0.3943,-0.3943,-0.3943,-0.3941,-0.3942,-0.394,-0.394,-0.394,-0.394,-0.394,0,-0.3482,-0.3511,-0.354,-0.3584,-0.3609,-0.363,-0.3665,-0.3684,-0.3711,-0.3743,-0.377,-0.3805,-0.3835,-0.387,-0.3901,-0.3913,-0.3922,-0.3919,-0.3918,-0.3923,-0.3933,-0.3929,-0.3911,-0.3911,-0.3911,-0.3911,-0.3911,-0.3911,-0.3476,-0.3504,-0.3528,-0.357,-0.3598,-0.363,-0.3649,-0.3675,-0.3701,-0.374,-0.3766,-0.379,-0.3823,-0.3858,-0.3886,-0.3895,-0.3905,-0.3899,-0.3911,-0.392,-0.3922,-0.3924,-0.392,-0.3901,-0.3901,-0.3899,-0.3899,-0.3899]}]]